GFSSGP_850_thetae_003.txt.gz
Theta_e
344 353 354 356 360 347 341 344 345 347 351 347 347 345 350 350 351 350 349 350 348 340 340 341 340 341 340 342 344 345 343 342 340 337 333 333 333 332 331 333 335 336 336 335 333 335 337 337 337
345 354 354 354 353 341 341 340 340 348 348 345 346 351 351 351 348 351 350 348 349 341 339 342 342 342 343 344 344 339 336 337 337 338 336 332 331 331 332 333 336 337 335 333 335 337 338 337 336
350 352 354 356 336 340 339 338 339 346 347 347 351 350 351 351 351 351 350 352 350 343 343 343 343 343 343 343 343 339 339 342 341 340 338 337 334 334 334 335 336 336 335 336 337 337 338 337 336
342 350 354 341 336 337 337 338 342 347 347 348 352 353 353 352 351 352 352 351 345 344 345 344 344 343 342 343 341 340 338 340 337 337 339 339 338 337 336 336 336 336 336 334 334 335 337 337 338
342 345 349 336 337 337 336 338 339 344 347 352 354 354 354 351 351 351 349 350 345 345 346 345 345 344 342 340 339 341 342 341 339 336 339 339 338 336 335 334 334 333 332 333 335 336 337 337 337
340 343 350 341 338 333 333 338 343 348 349 352 356 355 355 353 350 352 348 349 346 345 344 341 341 342 342 341 338 338 340 340 338 337 336 338 337 337 334 332 332 331 332 334 335 335 336 337 336
343 344 350 345 340 339 336 339 342 345 348 348 354 355 353 354 353 354 353 351 348 346 342 339 341 341 341 342 341 336 338 339 338 336 335 336 336 336 336 335 336 335 337 338 336 335 333 333 333
343 342 346 345 346 338 338 339 340 343 345 348 350 351 351 354 354 355 355 353 352 346 344 342 343 342 339 339 341 341 339 339 338 336 336 337 338 341 340 342 344 342 340 338 336 335 336 330 333
342 345 344 346 344 341 339 339 341 342 345 347 347 350 349 353 354 353 354 353 351 351 349 346 345 345 343 341 339 338 338 338 337 336 337 340 343 344 337 342 335 343 341 343 336 342 342 343 341
344 346 340 342 342 344 345 346 346 344 346 347 348 349 349 349 351 352 356 354 353 352 352 349 348 349 347 345 343 342 340 338 337 337 342 344 344 349 345 344 345 346 345 345 344 345 343 345 343
344 343 341 340 342 343 344 347 346 348 344 347 349 348 347 351 350 352 351 353 351 351 350 350 353 350 351 351 347 346 345 343 347 345 345 347 348 348 339 346 348 347 347 344 343 344 342 340 345
338 338 342 343 344 343 344 343 339 347 345 348 348 348 347 348 351 350 348 352 353 352 354 352 352 348 352 351 348 349 349 348 348 349 349 346 344 344 344 345 346 347 346 346 344 344 342 343 343
336 336 340 339 341 344 345 343 341 340 347 348 348 348 348 349 348 351 350 350 351 352 354 351 352 347 350 352 352 354 350 350 351 348 348 350 347 345 344 342 341 343 344 346 345 345 344 341 341
337 337 339 339 340 344 345 341 345 342 345 347 347 348 348 348 348 347 348 351 351 347 353 352 350 347 347 351 349 350 352 350 352 349 350 350 348 348 348 346 343 344 343 345 344 344 342 342 342
338 336 336 338 340 344 344 347 349 346 345 346 347 347 348 347 347 347 347 348 349 349 350 350 347 345 345 345 346 348 350 348 348 348 349 345 346 346 346 343 344 344 343 342 341 340 339 339 340
336 335 334 336 337 342 345 350 348 347 346 346 347 347 347 347 348 347 347 347 347 347 349 347 347 346 346 349 348 346 347 345 348 350 348 346 348 347 350 346 345 344 343 343 342 342 341 341 341
334 336 338 339 335 336 342 350 347 348 349 349 349 349 348 348 348 347 347 346 346 347 347 348 348 349 349 352 350 348 347 345 345 347 348 347 349 350 350 346 345 342 342 342 341 338 337 337 335
335 336 340 340 336 335 341 347 347 348 350 350 351 351 352 351 350 349 347 346 347 346 348 348 349 352 353 353 353 350 348 347 348 347 347 346 349 350 350 344 343 343 341 338 340 340 338 337 337
335 336 341 341 338 338 341 348 347 347 347 347 350 350 350 351 352 352 351 349 349 351 349 350 351 348 349 350 351 348 345 344 342 344 345 346 348 344 341 342 336 335 341 339 339 338 339 334 334
332 340 341 341 340 339 339 345 344 343 345 347 348 348 350 350 352 352 351 348 352 351 349 349 348 349 351 347 341 340 338 335 339 342 344 343 345 342 340 339 339 338 335 334 333 336 337 339 333
331 332 339 342 342 341 342 343 344 342 342 345 348 348 348 347 350 353 353 352 352 353 353 346 337 338 337 342 339 346 344 341 343 344 345 344 338 337 333 328 330 336 333 338 338 338 337 335 333
329 331 332 339 343 342 341 346 343 340 339 343 347 347 347 349 348 348 349 350 350 355 352 344 339 347 345 343 350 347 338 333 337 341 339 338 334 328 332 336 336 335 333 332 336 338 336 337 335
329 330 331 330 336 334 338 335 343 339 339 341 343 347 347 347 346 345 346 347 351 350 351 347 344 348 349 347 335 338 326 335 338 337 337 332 333 334 335 337 339 337 332 326 332 335 334 334 336
332 330 329 328 327 329 332 335 345 342 341 341 342 344 345 346 346 345 345 346 351 350 347 352 351 351 352 347 319 321 321 320 333 334 333 329 336 334 336 336 336 332 327 329 330 331 332 333 335
330 327 332 331 330 330 329 330 342 342 341 339 339 341 343 345 346 346 345 347 350 350 349 353 353 352 335 321 326 327 332 324 319 322 328 334 333 335 334 333 331 326 325 328 330 330 331 333 333
327 326 333 338 335 334 332 335 337 343 342 340 341 339 341 344 344 345 344 346 347 348 349 349 352 352 329 321 330 329 327 327 340 340 338 335 328 330 333 332 332 332 327 333 333 332 332 331 334
329 331 330 331 333 332 333 337 339 342 341 341 343 341 339 342 344 344 344 344 344 348 348 346 350 348 326 324 332 331 331 324 335 332 333 333 323 331 333 334 331 325 323 331 333 333 333 333 334
329 331 330 327 333 336 333 340 337 336 337 340 341 339 340 339 344 344 343 343 343 346 347 347 350 347 327 324 333 332 332 333 325 321 320 320 323 326 328 326 327 328 322 325 332 332 332 331 332
331 330 330 329 329 330 333 336 340 338 335 332 331 335 340 341 342 345 344 342 343 345 347 348 349 348 337 326 333 337 339 333 325 323 321 323 328 331 332 331 327 324 325 329 332 333 331 331 331
329 328 332 331 334 333 333 337 335 335 333 335 337 336 336 337 342 344 346 344 345 347 347 349 349 348 345 328 335 338 338 330 331 333 327 329 330 328 326 325 329 330 331 329 330 329 330 331 329

GFSSGP_850_thetae_006.txt.gz
Theta_e
342 345 353 354 353 340 346 351 345 349 348 348 347 349 348 349 347 348 347 343 340 340 341 341 341 340 340 343 344 343 342 338 338 339 335 333 333 333 334 335 336 336 334 332 336 336 335 334 334
351 354 355 354 349 341 340 347 350 345 347 348 351 350 350 350 348 349 348 341 340 340 339 339 339 340 343 345 343 342 340 336 334 333 333 332 330 331 333 335 336 334 332 335 337 337 336 335 335
348 354 354 352 341 339 345 348 348 344 346 349 350 349 349 351 350 350 347 343 339 340 340 341 341 342 344 340 337 336 336 337 335 332 331 331 331 333 335 336 335 335 335 336 335 336 336 336 337
348 350 352 344 335 336 348 348 347 346 346 351 352 352 351 351 351 350 350 343 341 342 342 342 343 343 343 338 339 341 340 340 338 337 335 335 336 336 336 335 335 335 333 333 335 336 336 336 336
345 345 343 335 336 336 346 347 347 350 352 352 351 353 352 350 349 350 350 344 343 343 343 343 344 344 342 341 338 339 339 337 338 339 337 336 336 335 334 333 332 331 332 334 335 336 336 337 336
340 341 346 347 338 333 343 346 349 354 354 352 352 352 352 350 351 352 348 344 344 344 343 344 343 344 342 341 341 341 340 338 336 339 338 338 337 336 332 332 332 332 334 335 335 335 335 335 334
341 343 346 345 343 345 347 347 350 355 354 354 351 353 352 351 350 348 348 345 344 343 342 343 343 342 341 339 339 340 339 338 336 335 336 336 335 335 334 335 336 337 340 338 335 334 334 332 334
342 341 343 342 343 337 345 345 348 352 351 352 349 353 352 350 349 349 346 345 344 341 340 341 343 343 342 339 336 337 338 337 335 335 336 336 336 339 339 342 342 341 340 336 334 340 336 332 335
343 342 343 344 341 341 338 342 347 348 353 349 350 349 352 353 354 352 349 350 346 343 340 342 341 340 340 340 340 338 338 337 335 336 336 338 340 343 339 343 335 343 344 343 338 343 343 342 341
341 342 342 341 340 341 339 341 344 348 350 349 349 350 353 354 355 354 353 352 349 347 345 344 344 342 341 340 339 338 337 336 335 336 337 339 342 348 345 344 346 345 345 343 343 343 343 342 343
339 342 341 341 343 345 346 347 346 347 349 349 349 350 354 354 355 353 352 349 346 348 347 347 348 347 345 343 342 341 340 338 340 338 340 344 345 347 345 344 345 345 345 344 344 343 344 343 343
341 340 341 340 345 345 345 344 339 346 348 348 349 350 354 354 353 352 351 351 350 348 348 348 349 346 349 348 345 347 346 345 346 346 346 346 342 343 344 345 343 343 344 345 345 345 344 342 342
338 340 341 343 342 343 342 339 343 347 348 347 348 349 351 352 352 351 350 349 351 349 350 351 351 346 350 349 349 349 349 348 348 348 349 346 348 346 346 345 344 343 343 343 344 343 342 342 343
339 341 343 343 344 343 339 339 341 348 348 347 347 347 350 351 351 350 349 352 352 350 351 350 349 348 346 349 350 350 350 351 351 351 349 348 349 348 346 346 346 344 343 341 342 343 342 340 339
339 341 340 342 344 344 347 348 346 346 348 348 347 347 347 348 349 350 348 348 350 349 352 349 349 347 346 347 350 349 352 351 350 350 350 347 348 345 345 345 344 345 346 345 343 341 341 340 340
333 332 335 337 343 345 345 351 344 347 347 347 348 347 348 348 347 348 348 348 349 346 348 346 347 343 345 344 345 345 346 346 346 344 347 347 346 346 348 346 344 344 343 342 343 343 340 338 336
328 332 338 337 338 342 344 349 345 345 346 346 347 347 348 347 347 346 347 347 346 346 346 348 346 345 346 347 349 348 346 345 345 344 346 344 344 344 345 345 346 343 341 341 340 339 339 336 333
331 335 337 337 335 340 346 347 346 345 345 346 346 346 347 347 347 347 347 347 346 345 346 348 347 346 347 352 350 350 347 346 344 345 345 346 346 346 348 349 342 339 337 338 338 336 336 336 334
330 336 338 337 334 346 347 348 348 346 347 347 347 347 347 347 347 347 346 346 346 345 347 348 347 347 348 347 347 346 344 345 345 345 346 348 347 348 343 340 338 334 334 333 335 333 333 334 338
328 334 338 339 335 335 347 349 347 347 348 348 348 350 348 349 347 347 347 347 346 346 348 347 347 343 344 345 342 340 337 333 340 342 342 342 342 342 340 334 332 333 336 334 334 337 336 336 335
328 336 337 339 339 338 345 347 346 347 347 347 348 350 351 351 350 349 349 347 348 349 346 346 345 345 345 341 338 338 341 337 340 342 342 344 341 337 331 326 327 331 332 334 335 334 335 336 335
325 329 337 340 341 341 339 348 342 344 343 341 346 348 350 350 350 351 351 347 348 350 346 347 347 336 332 336 334 338 343 341 334 341 344 340 336 327 329 335 331 333 335 332 328 333 334 335 333
327 327 328 340 339 336 342 341 345 337 337 336 342 346 348 349 349 351 351 348 347 351 352 351 335 335 334 331 321 333 341 331 333 338 338 337 329 332 332 335 336 336 333 326 330 329 330 330 331
328 329 324 326 326 333 338 336 337 341 340 338 337 346 346 347 349 349 350 348 349 352 353 351 334 333 336 323 327 335 334 327 333 336 335 334 328 328 332 334 336 335 327 324 327 330 329 333 332
327 322 323 325 325 325 322 339 337 339 339 336 337 346 346 346 348 349 349 350 350 350 351 348 340 335 335 330 345 322 323 317 318 329 332 327 322 331 334 334 333 327 323 322 329 330 329 331 330
323 322 323 328 331 328 325 328 329 338 339 337 338 344 346 346 347 348 346 345 344 348 349 346 341 345 337 338 349 325 323 320 321 322 322 326 334 329 327 330 328 329 326 326 332 332 332 330 331
325 325 324 327 328 329 328 331 336 337 338 337 337 340 344 345 346 346 345 344 343 345 347 347 341 340 340 340 328 325 327 320 321 327 332 336 336 328 330 329 331 330 325 322 329 331 332 334 333
325 324 327 322 329 331 329 333 334 341 339 338 337 336 339 343 345 345 345 344 344 343 344 346 345 339 341 338 325 324 329 325 320 322 329 327 322 324 328 328 324 326 328 323 324 328 329 331 330
328 327 324 323 324 327 328 329 330 339 338 339 338 339 338 341 343 345 345 345 344 344 346 345 347 346 346 345 326 325 331 329 325 325 320 320 322 324 324 327 326 323 322 327 328 327 327 330 331
325 325 324 325 327 325 325 330 333 333 333 338 339 341 342 339 342 343 344 345 345 345 347 345 347 347 347 349 329 325 331 329 327 325 322 320 320 322 321 323 323 325 325 326 325 326 328 329 328

GFSSGP_850_thetae_009.txt.gz
Theta_e
345 345 351 355 348 340 351 350 346 348 349 347 348 348 348 346 346 348 345 342 346 347 347 347 347 344 343 344 343 343 343 344 334 333 333 333 333 333 332 333 334 334 332 335 336 335 335 334 334
343 347 354 354 337 342 344 346 349 346 348 349 350 349 349 350 347 346 344 341 343 345 345 343 342 342 343 342 342 341 340 341 333 335 332 331 331 333 335 335 333 330 332 335 336 336 335 336 336
349 353 353 350 335 343 347 346 346 346 350 350 349 349 349 348 346 343 340 340 340 340 340 340 341 344 344 342 341 338 336 338 335 333 331 330 332 333 335 335 333 334 335 335 334 335 335 336 337
349 352 349 335 335 338 348 344 343 346 347 351 350 351 350 350 347 341 339 340 340 340 340 340 342 344 341 339 338 336 334 332 331 331 330 331 332 334 335 335 335 335 333 334 335 336 336 337 337
348 346 337 333 335 347 346 344 345 345 351 351 350 351 351 350 346 346 339 340 340 340 341 342 342 340 335 336 337 337 337 337 335 333 333 335 336 336 335 335 333 331 332 334 335 335 336 337 338
340 340 339 342 340 347 346 345 346 352 353 351 350 350 351 349 348 345 341 340 342 342 342 342 342 341 336 341 340 339 339 339 338 338 337 336 335 334 333 332 331 332 334 336 336 335 334 334 335
339 338 343 341 340 348 347 349 353 352 350 351 349 351 352 349 348 346 343 343 342 342 343 343 343 341 340 338 339 339 338 336 338 338 337 337 337 333 333 334 336 336 340 340 336 334 335 332 334
340 336 341 340 343 347 346 349 352 351 352 350 346 350 350 350 349 348 345 344 344 343 343 342 343 341 340 340 341 339 338 336 336 336 337 336 336 336 337 341 342 341 340 337 336 340 337 335 336
343 337 340 342 339 339 346 347 352 351 351 347 349 346 346 349 349 350 346 345 345 344 343 345 342 341 339 337 338 338 338 336 335 335 336 336 337 340 339 342 338 337 343 343 339 343 342 342 341
340 337 340 339 337 338 342 347 349 351 350 350 350 346 348 349 349 347 345 345 343 340 342 348 348 346 343 339 337 337 338 337 336 336 337 338 341 346 345 344 346 344 345 343 342 342 343 343 344
340 341 339 340 340 338 341 344 346 350 349 349 350 349 350 349 350 348 347 344 343 341 340 342 342 340 339 339 339 338 338 337 336 337 339 343 343 345 343 341 344 344 344 343 344 344 343 341 341
334 339 340 340 343 340 341 345 348 347 348 347 348 351 352 352 352 351 350 348 345 345 344 344 344 343 343 342 341 341 339 339 342 338 343 345 342 343 342 344 342 342 342 344 344 343 342 341 340
330 336 339 341 344 343 343 342 345 345 348 349 351 352 353 353 352 351 349 348 347 347 347 346 346 346 345 346 345 345 345 343 346 347 348 347 346 346 346 346 345 345 343 343 341 343 342 342 341
336 339 341 342 342 340 342 345 346 348 348 349 352 353 353 353 352 352 351 350 348 348 348 347 347 345 350 350 346 347 348 347 349 348 348 347 347 346 346 345 345 344 345 343 343 343 342 341 341
340 341 341 341 341 338 343 344 348 347 348 348 352 353 353 352 352 351 350 350 348 347 347 350 349 348 345 344 348 346 347 347 348 348 348 346 345 348 345 344 343 343 344 343 342 343 343 342 340
338 335 344 341 342 343 344 350 347 347 347 347 348 350 352 352 351 351 350 347 350 349 350 349 349 348 347 346 347 349 348 347 346 347 348 347 346 347 346 345 344 344 344 343 341 341 340 337 335
329 343 339 342 340 343 344 347 346 347 346 346 347 347 348 350 351 350 349 348 348 349 347 349 349 347 345 346 346 347 347 347 346 346 345 346 345 344 343 344 344 347 342 341 340 338 336 333 331
339 335 342 344 344 341 345 346 346 347 346 346 346 347 347 347 347 348 349 347 347 348 345 345 346 346 345 347 347 349 349 347 346 346 344 344 344 344 345 344 348 340 335 331 329 330 330 329 333
329 333 342 341 337 345 345 346 345 346 345 345 346 347 347 347 347 347 347 347 348 346 345 345 347 347 346 347 350 350 349 348 347 347 347 347 346 347 346 341 339 334 332 331 330 328 332 334 335
327 331 336 336 340 343 345 347 344 343 344 345 345 345 346 347 347 347 346 347 347 346 345 345 347 346 344 344 346 346 344 341 341 346 343 339 341 341 341 338 333 330 327 330 331 337 333 334 335
326 328 331 337 337 344 346 348 347 345 345 344 345 345 345 346 347 347 346 346 346 346 345 346 347 344 339 341 343 342 339 335 336 340 340 339 344 339 335 329 322 324 330 332 328 327 331 334 334
329 327 331 336 337 344 344 350 343 345 346 345 347 347 347 346 346 347 347 346 346 346 346 346 345 342 342 344 342 333 334 339 338 336 338 343 342 335 327 328 329 330 333 332 326 327 330 332 331
329 326 326 333 336 339 341 342 343 342 344 345 345 345 348 348 347 347 347 349 349 345 346 341 342 343 340 342 336 331 330 337 339 332 336 342 337 331 328 331 333 335 335 329 327 329 329 329 329
328 326 321 324 329 339 342 338 337 345 346 345 343 344 348 349 349 350 349 349 350 342 342 345 343 340 336 330 329 323 328 331 329 332 337 337 333 329 328 333 335 335 332 324 326 328 328 330 330
323 321 322 329 335 338 330 337 336 338 343 343 342 341 346 348 350 350 350 350 350 342 341 344 342 333 332 329 325 322 323 329 323 329 334 334 333 328 320 325 332 332 325 321 326 329 330 329 328
321 320 322 324 327 331 325 340 339 335 338 341 341 341 344 346 348 350 349 349 350 343 339 335 343 336 333 332 326 327 326 323 317 318 327 328 324 321 327 328 330 330 328 323 323 326 331 332 331
323 321 320 321 324 325 324 327 328 334 334 338 338 337 342 345 346 349 349 348 350 347 340 332 336 338 334 328 328 328 335 325 319 319 318 319 324 331 332 325 324 328 327 323 318 322 328 331 333
323 321 324 320 326 329 326 329 329 334 335 336 335 335 340 344 345 347 348 348 348 347 341 338 338 340 336 331 331 328 336 326 322 321 321 322 331 334 326 324 328 324 322 325 325 321 326 328 330
325 322 321 320 321 324 326 327 325 331 334 335 335 337 339 343 344 345 346 347 347 347 345 339 342 345 342 336 337 334 334 325 326 319 319 320 321 320 322 324 326 324 322 322 326 328 328 328 329
321 322 322 324 323 321 323 326 327 329 333 335 335 336 338 341 343 344 345 346 347 347 346 342 342 344 345 344 341 341 339 325 329 324 320 319 319 321 323 323 323 322 325 326 326 325 326 326 327

GFSSGP_850_thetae_012.txt.gz
Theta_e
345 347 347 354 341 341 349 348 345 348 348 347 347 347 347 346 346 346 343 346 346 347 345 346 346 345 346 347 346 346 345 342 336 334 333 331 331 331 331 332 334 332 333 335 335 334 334 335 335
344 345 354 353 339 346 346 345 347 347 348 349 349 349 348 348 345 344 344 346 348 348 347 347 343 343 344 345 343 343 343 333 332 333 333 332 332 332 331 334 332 331 334 336 336 336 336 336 337
344 351 353 343 334 343 347 345 348 349 349 349 349 349 348 347 345 342 343 346 346 346 346 343 342 343 342 341 341 342 338 332 334 332 331 331 333 334 334 333 332 334 335 333 335 336 336 337 337
350 353 348 330 335 340 345 343 347 349 350 350 348 351 349 347 342 340 341 342 343 341 340 341 343 343 341 341 338 340 337 333 334 332 332 332 333 335 335 334 335 334 332 334 335 336 337 338 337
349 346 331 334 337 347 344 343 346 347 351 350 349 350 350 346 340 339 339 339 339 340 341 342 344 343 342 340 336 337 337 334 333 332 330 331 334 335 335 335 333 331 333 334 335 335 335 337 336
340 338 335 340 340 347 344 344 347 352 351 350 349 349 350 348 340 339 340 339 339 340 341 343 343 341 340 338 336 335 333 332 331 331 333 335 336 335 333 332 331 332 334 336 336 335 334 335 335
341 335 339 339 346 348 346 345 351 351 350 349 348 349 351 348 343 339 340 340 341 342 342 342 341 336 337 337 338 338 338 337 337 336 337 336 335 333 332 334 335 336 339 339 336 334 337 333 334
339 332 341 338 347 348 345 351 352 349 350 349 347 349 349 348 343 341 340 342 342 342 341 341 341 336 340 340 339 338 337 337 338 338 337 337 335 334 336 340 339 340 340 338 339 340 341 341 338
342 334 338 339 341 341 346 351 351 351 350 348 348 347 347 347 345 343 342 342 342 342 342 342 340 340 338 339 339 339 338 336 337 336 336 336 336 340 339 340 341 340 342 343 341 342 342 341 342
337 336 338 336 335 342 345 350 351 350 349 349 349 346 347 347 347 344 344 344 343 343 342 342 341 340 339 339 340 338 337 336 335 335 335 336 338 343 344 343 344 345 344 342 341 341 342 341 343
338 339 337 339 337 345 345 348 349 348 348 349 348 346 348 349 349 347 344 343 341 341 342 343 342 341 339 337 336 337 337 337 336 335 336 338 340 344 346 343 343 343 343 343 343 342 344 343 341
336 338 339 339 340 344 342 346 349 345 345 347 347 343 347 347 349 346 344 343 341 339 340 342 342 339 339 340 339 338 338 337 336 336 337 340 343 343 343 344 343 342 343 343 343 343 342 341 342
329 328 337 340 340 341 343 345 347 345 347 347 346 345 347 347 346 344 343 344 342 341 340 342 342 342 340 341 340 340 340 339 340 341 339 344 346 344 344 346 345 344 343 343 342 341 341 342 341
327 334 339 341 340 341 342 344 347 346 347 348 345 347 347 346 348 348 348 347 344 343 343 343 343 344 343 343 344 343 344 344 343 346 348 348 348 344 344 344 344 343 342 344 345 344 343 342 342
338 339 339 339 338 341 343 344 345 347 347 350 351 350 349 350 350 350 348 347 347 345 344 344 342 344 345 348 347 344 347 348 346 346 347 346 346 345 344 343 343 342 342 344 342 341 342 342 339
337 337 342 340 339 341 341 345 346 348 348 351 352 352 351 351 349 349 349 348 349 347 344 346 347 348 346 346 346 348 346 346 345 348 348 345 345 346 345 344 343 344 343 344 342 341 340 338 336
332 341 340 344 340 341 343 345 346 347 347 350 352 352 352 351 351 350 349 349 349 347 347 347 348 347 347 346 346 346 347 348 347 347 346 346 344 344 345 343 344 343 346 340 339 338 337 333 328
337 340 339 345 340 343 344 344 346 346 346 347 349 350 351 352 351 350 350 350 349 348 349 348 348 347 347 346 346 347 347 348 348 348 347 345 344 344 343 344 343 345 338 332 328 326 327 329 331
331 339 341 341 339 342 344 344 347 346 345 345 345 346 348 349 349 350 350 350 349 348 349 348 348 347 346 346 346 347 348 350 350 347 346 345 346 345 344 346 340 337 334 332 327 326 327 333 332
332 336 338 337 339 342 345 346 346 346 345 345 345 345 346 347 348 349 349 350 349 347 347 346 345 345 346 346 346 348 351 350 348 346 346 345 343 342 340 340 336 332 328 323 324 329 333 330 333
326 328 333 339 341 343 345 347 344 345 345 345 345 345 345 345 346 346 346 347 348 347 347 345 344 345 346 346 346 349 350 343 337 336 341 335 337 342 338 335 330 320 322 326 326 324 326 331 330
327 325 328 336 342 342 341 341 344 343 344 343 344 344 345 345 345 345 346 346 347 346 346 345 343 344 345 346 345 345 340 336 335 332 335 336 338 336 336 327 322 323 328 332 328 325 327 329 330
327 326 328 334 336 339 345 339 338 344 345 344 343 343 344 344 345 346 346 346 346 346 346 345 344 344 345 345 344 345 340 337 340 339 337 335 342 339 331 325 329 331 333 332 325 327 328 328 329
324 322 322 323 329 337 339 341 336 345 347 345 343 344 345 345 345 345 345 346 346 346 346 345 342 338 340 343 342 340 334 332 336 336 329 331 340 335 329 328 331 333 332 328 326 327 327 329 331
320 321 323 327 334 336 331 340 338 336 343 343 342 344 345 346 346 347 346 346 346 346 348 344 334 330 334 338 333 329 327 326 328 331 324 332 335 333 331 327 328 331 330 324 321 324 328 328 328
321 321 322 326 327 335 331 343 341 337 335 341 342 343 344 345 347 347 348 347 348 348 348 341 333 327 329 332 328 325 326 323 323 324 320 326 332 332 323 322 324 326 325 325 322 323 328 331 331
321 321 320 319 320 323 325 326 328 329 330 335 339 341 343 343 345 347 348 348 348 349 348 342 333 327 327 328 325 325 324 325 323 321 317 319 324 322 323 327 324 326 326 327 325 320 321 327 329
320 318 323 317 324 327 324 326 328 330 332 330 333 339 341 342 344 346 347 348 349 349 348 347 336 325 326 329 326 327 326 324 325 323 319 317 317 321 325 330 325 325 324 321 323 324 320 324 326
320 320 317 317 318 322 323 324 322 326 328 331 332 337 338 340 342 344 345 346 348 349 348 348 344 333 327 329 330 329 332 329 332 325 320 319 320 322 326 326 323 324 324 322 322 324 326 326 325
319 319 319 322 320 319 320 323 324 326 326 331 332 335 337 338 340 341 343 345 346 348 348 348 347 343 334 329 334 334 332 336 337 329 324 319 319 319 320 321 322 324 325 324 324 323 323 325 327

GFSSGP_850_thetae_015.txt.gz
Theta_e
345 348 351 354 348 347 351 350 347 350 349 349 347 347 348 347 347 351 344 344 345 345 345 343 343 343 344 345 345 343 339 341 340 338 335 333 332 331 331 334 332 332 335 335 335 335 336 336 336
346 346 353 352 347 350 351 347 350 348 349 349 349 349 348 348 346 345 345 344 344 344 345 345 346 345 345 345 345 343 340 339 337 334 333 332 332 331 332 333 331 333 336 336 336 336 336 336 337
344 349 354 343 345 347 351 347 349 349 350 349 349 348 347 347 346 346 346 346 347 346 346 344 345 345 345 345 344 343 335 333 333 333 332 333 332 332 333 332 331 335 335 335 336 336 336 337 336
349 353 344 340 345 347 347 348 350 350 351 350 347 348 348 347 346 344 347 348 347 347 345 344 345 343 343 342 343 339 333 333 332 331 332 333 334 334 334 333 335 333 333 335 336 336 335 336 336
349 344 338 343 347 349 346 347 349 351 351 348 348 348 347 347 342 345 346 346 345 345 345 343 342 342 341 343 342 335 333 334 332 332 332 332 334 334 334 335 333 332 334 335 335 335 334 335 335
342 337 341 343 348 348 345 347 351 352 351 348 347 346 348 345 340 342 344 345 343 344 345 343 343 342 340 337 338 337 334 333 332 330 331 332 334 335 334 332 332 332 335 338 337 335 337 332 334
342 340 342 343 350 349 346 347 351 350 349 349 347 349 350 348 340 339 339 341 344 345 344 343 343 344 339 335 334 334 333 332 331 331 333 335 335 333 332 334 337 337 340 338 337 339 338 335 334
340 340 343 343 348 347 346 349 351 349 350 348 348 349 348 348 341 340 339 343 345 346 347 346 345 345 337 336 336 337 336 336 335 335 336 336 336 334 335 340 338 338 340 341 339 341 341 341 340
340 341 343 342 346 346 347 349 351 351 349 348 349 348 346 348 342 342 344 345 345 348 347 346 337 337 337 338 338 338 337 338 338 337 338 337 336 336 338 340 342 345 342 343 341 341 342 341 343
342 343 342 339 342 345 347 349 351 351 348 348 350 349 346 348 345 345 346 347 347 345 342 341 340 336 339 339 339 339 337 336 337 336 336 336 336 338 343 343 342 343 344 342 341 341 341 341 342
341 343 341 340 340 344 347 349 350 350 349 347 350 351 350 349 348 347 346 344 342 341 342 341 340 339 339 339 340 339 337 336 335 335 335 336 338 341 346 343 343 342 342 343 343 342 343 342 340
340 339 340 340 341 344 346 348 348 347 343 346 349 349 350 349 348 347 346 342 341 341 341 341 340 340 339 338 337 337 337 337 336 335 335 336 340 343 344 343 344 343 343 343 342 342 341 341 341
332 331 336 339 340 344 346 347 347 347 345 348 349 350 349 349 349 349 347 344 341 340 340 340 340 340 340 339 338 337 337 337 337 336 336 337 343 345 342 343 345 344 343 343 343 342 342 343 342
329 333 337 340 340 343 346 346 346 346 349 350 350 349 349 349 350 350 349 346 342 339 339 340 341 341 339 339 339 339 339 339 339 340 342 344 347 346 344 343 343 343 342 341 343 342 342 342 342
339 343 343 341 341 343 344 348 348 347 350 349 349 349 349 350 350 348 343 343 343 342 341 341 342 342 342 342 342 343 342 343 345 343 345 347 347 345 344 343 343 343 342 342 343 343 342 341 339
341 342 345 343 342 343 343 345 346 349 350 349 348 349 349 349 349 348 346 345 344 343 343 342 342 342 344 343 344 346 344 347 346 345 345 346 344 344 344 344 343 342 343 343 344 341 341 339 337
341 342 344 346 342 344 344 344 346 348 349 349 348 348 349 349 351 351 349 346 346 347 345 344 345 344 347 345 347 346 345 345 346 345 345 344 344 343 343 343 343 343 343 345 338 333 328 326 326
342 344 344 347 344 345 346 347 348 348 349 350 350 349 350 351 351 351 348 348 347 348 346 345 345 347 347 346 346 346 346 346 346 346 345 346 345 344 343 342 343 343 343 338 332 330 326 324 328
339 342 344 345 344 345 346 346 349 348 348 349 350 351 350 350 350 351 348 349 348 349 348 348 347 348 348 347 347 345 345 344 347 347 347 346 344 343 345 344 344 340 336 334 332 326 325 337 329
340 342 344 344 344 345 346 347 347 348 348 347 348 350 350 350 351 352 351 349 350 350 349 348 348 347 348 347 346 345 345 346 348 347 345 345 345 345 343 343 340 336 332 323 320 327 330 328 329
338 342 343 344 343 345 347 346 347 348 348 347 347 347 347 348 349 349 350 349 349 349 350 348 347 345 346 347 346 346 347 347 348 343 341 341 342 336 338 339 335 330 320 321 324 326 325 336 331
333 336 342 343 344 346 345 347 348 348 350 349 347 346 346 346 347 347 347 347 348 347 348 348 347 345 343 345 347 347 346 349 347 338 332 336 335 337 339 333 330 320 321 323 326 323 325 327 332
332 332 337 341 345 343 347 346 343 348 350 350 348 347 346 345 346 346 346 347 345 345 346 348 347 345 343 345 346 346 345 346 341 337 335 336 336 337 336 335 323 324 327 329 327 323 325 324 325
328 331 332 338 340 343 342 345 340 349 349 348 346 346 346 345 345 345 346 344 345 345 346 346 346 345 344 344 345 345 342 344 338 334 337 339 333 339 340 331 326 331 332 331 324 323 323 325 328
329 331 334 336 339 337 336 346 343 341 344 345 345 345 345 345 345 345 346 345 345 345 346 346 346 346 343 343 343 341 340 339 331 327 330 328 328 331 332 330 326 329 333 328 323 323 326 327 327
329 330 333 336 337 335 335 341 341 341 339 340 344 344 345 345 345 346 345 345 346 345 346 346 346 346 340 336 338 339 340 335 327 325 326 324 325 328 331 330 327 329 331 327 325 322 323 324 327
329 329 331 332 327 334 336 339 335 338 338 338 340 343 344 345 345 346 346 345 346 347 346 347 346 346 336 329 332 336 339 334 326 323 323 319 322 327 329 323 324 325 327 326 325 324 320 321 327
326 327 328 329 337 334 332 334 333 339 340 341 340 341 342 345 346 347 347 345 346 347 347 348 346 342 329 329 328 331 334 330 325 325 325 320 318 322 321 321 326 326 325 325 322 322 323 323 323
325 326 327 330 331 335 334 333 335 338 340 340 341 339 341 344 345 346 347 345 345 345 348 348 348 347 339 325 326 329 332 330 325 329 325 322 319 318 318 322 326 327 324 324 321 321 322 325 327
325 326 328 331 333 329 331 332 331 334 336 336 338 338 338 342 343 346 348 347 345 346 346 347 348 348 346 336 325 327 330 328 329 328 328 325 321 319 320 323 326 323 324 324 322 324 326 327 325

GFSSGP_850_thetae_021.txt.gz
Theta_e
346 351 357 359 361 354 352 351 350 352 351 348 347 352 351 351 351 351 345 350 349 349 344 343 341 341 341 340 340 339 336 336 334 336 335 334 332 334 334 332 335 336 336 335 335 336 336 335 337
353 357 359 359 356 352 352 350 350 350 349 348 348 349 350 351 347 348 349 350 348 347 348 346 344 345 344 342 341 342 337 336 335 335 334 332 331 334 333 331 334 335 334 335 335 335 336 335 336
357 357 358 360 348 351 351 349 349 348 347 348 348 348 351 350 349 350 349 348 347 349 350 344 344 343 343 343 341 341 339 336 335 333 332 331 331 334 332 333 335 333 334 335 335 334 333 335 334
357 354 353 345 342 347 349 348 347 348 348 348 349 350 349 349 350 350 352 351 350 350 350 344 344 344 342 339 338 337 334 333 332 331 332 332 333 335 333 335 332 332 334 335 335 333 333 333 335
353 351 346 340 342 345 348 347 347 348 347 348 348 351 349 350 350 350 351 350 351 352 352 346 345 345 344 340 335 335 333 332 332 332 332 335 335 335 335 333 331 332 334 338 336 336 333 332 337
351 344 339 339 340 342 346 346 345 347 347 347 349 350 351 350 351 351 352 351 351 351 351 348 344 344 343 338 333 332 332 331 332 333 334 334 335 335 334 332 334 335 338 336 336 339 335 331 337
350 346 339 339 340 340 342 343 344 345 345 347 348 352 351 351 351 350 352 351 351 351 351 351 349 342 342 337 333 333 333 332 331 331 332 334 335 333 332 337 337 338 339 340 338 341 340 337 337
348 344 339 341 341 339 340 343 342 343 346 345 348 352 351 351 349 349 348 348 351 351 351 351 351 350 349 341 333 334 334 332 331 331 333 335 335 334 341 339 344 343 341 342 340 340 340 340 340
345 345 344 340 341 339 339 341 342 344 343 344 346 348 349 350 349 348 347 349 351 351 350 351 351 349 350 350 342 334 333 332 332 333 336 336 348 350 349 349 343 342 341 342 340 339 340 345 347
346 347 344 340 343 341 340 340 342 343 343 345 345 347 349 349 349 348 347 350 350 351 351 350 349 350 349 348 344 348 347 346 345 348 348 342 350 349 348 348 342 342 341 342 344 341 346 348 349
343 347 342 340 340 342 341 340 341 343 344 344 345 348 348 348 349 348 348 348 349 351 351 349 353 350 349 350 349 349 349 349 349 351 350 350 350 350 349 350 351 352 349 352 349 350 349 350 348
342 343 341 341 339 342 341 342 339 340 341 342 345 347 347 348 348 348 348 348 350 350 349 348 349 351 350 350 348 349 348 347 347 349 351 351 349 349 349 349 351 349 350 350 348 349 351 347 348
339 341 339 337 339 340 341 342 341 338 340 342 345 346 347 347 347 347 347 348 349 349 349 349 350 352 351 353 349 349 348 347 347 348 350 349 349 349 349 350 350 349 349 349 350 349 348 349 349
337 338 337 336 338 339 342 342 341 340 342 343 346 346 346 346 346 346 346 347 349 350 350 350 352 353 352 351 354 350 350 349 347 348 348 350 348 350 349 349 348 349 348 349 350 349 347 347 346
335 336 339 338 338 340 340 343 343 342 344 344 346 346 345 345 345 346 346 347 349 350 350 351 352 352 353 353 352 351 350 349 349 348 351 350 351 346 348 349 350 348 349 350 346 346 348 346 346
336 338 340 339 339 340 341 343 343 344 343 346 345 346 345 345 345 346 346 347 348 349 350 351 350 351 353 353 353 352 350 351 350 349 351 352 351 349 349 351 349 349 350 350 350 348 347 342 340
336 339 339 340 340 343 343 347 344 344 343 343 346 345 346 346 346 346 347 348 348 349 350 351 351 351 353 353 353 352 351 353 352 350 351 351 352 352 351 350 348 352 350 348 348 347 344 341 335
339 339 340 345 341 344 344 347 346 346 344 341 344 344 345 345 346 347 348 348 348 349 351 352 351 351 352 352 352 354 352 353 352 350 353 350 351 352 352 351 351 348 347 349 347 345 342 338 337
339 340 340 340 340 343 345 345 346 347 347 344 342 343 344 344 346 347 348 348 348 349 352 353 353 352 353 354 355 353 353 352 350 351 351 350 354 349 349 349 351 347 346 348 346 342 335 336 340
336 340 341 340 341 341 343 345 347 348 348 347 345 343 343 343 344 346 348 348 349 351 353 354 354 354 353 356 353 351 349 348 350 353 352 356 352 352 351 349 351 349 345 346 342 339 337 335 338
335 338 340 340 343 344 344 346 345 345 347 347 346 345 344 343 343 344 348 349 350 351 353 355 355 354 355 355 353 352 353 349 351 347 349 351 350 350 347 351 348 348 341 335 338 340 338 338 337
335 336 338 339 345 349 343 348 347 345 345 348 348 347 345 344 343 343 347 349 350 351 354 355 357 356 356 355 356 352 352 349 347 346 347 346 348 347 349 347 345 343 337 337 338 339 337 333 337
333 336 338 339 341 345 343 344 345 344 345 345 347 347 347 344 344 344 345 347 349 351 353 356 357 357 356 356 353 354 351 348 348 347 348 346 348 347 345 346 346 341 328 338 339 339 335 340 336
332 336 337 338 339 344 345 346 346 345 345 345 344 346 348 346 345 346 345 346 348 349 351 354 356 358 356 356 354 351 354 350 350 349 350 346 347 346 346 347 344 340 335 341 341 339 338 334 337
330 334 339 340 341 341 345 344 350 343 344 344 343 342 345 348 345 344 346 346 347 348 350 352 354 356 354 355 357 353 351 355 352 355 349 346 346 346 346 346 344 340 332 343 340 338 339 337 338
330 332 337 341 341 340 340 345 345 344 341 341 340 339 342 347 347 344 344 344 345 347 349 351 353 354 352 357 355 355 353 355 353 350 351 345 344 344 343 343 345 341 343 341 341 336 336 338 336
330 333 334 337 338 340 340 340 340 342 342 340 340 338 338 345 347 345 344 343 344 345 348 350 351 354 348 354 350 349 346 346 352 350 348 350 343 342 343 345 341 342 341 341 339 336 338 337 337
328 331 335 338 344 344 340 340 341 342 341 340 339 338 338 339 345 346 344 344 344 344 346 349 350 354 348 349 349 349 344 341 342 349 351 350 344 340 342 344 343 340 340 331 328 337 337 338 336
327 331 333 335 338 340 341 341 339 341 341 340 339 337 337 338 343 346 346 345 345 344 345 348 352 353 353 351 352 349 345 351 341 344 349 350 344 344 344 340 342 332 326 330 320 322 330 337 337
328 328 331 341 340 338 339 339 339 338 338 338 337 337 337 336 338 342 345 346 346 346 346 348 351 355 357 356 350 346 344 342 343 337 346 348 340 336 330 331 338 324 325 324 330 329 323 336 337

GFSSGP_850_thetae_024.txt.gz
Theta_e
346 350 356 348 356 357 357 354 352 352 351 349 348 352 349 351 349 354 348 350 350 347 344 343 342 340 338 335 333 331 332 332 335 336 333 332 334 333 333 335 336 335 335 335 335 336 336 335 339
347 354 356 344 358 358 356 352 354 351 348 350 351 351 348 349 347 350 349 350 349 348 346 341 341 340 339 338 335 335 333 335 336 334 332 331 334 332 331 334 334 333 335 335 335 334 334 334 334
354 355 358 363 351 357 354 350 348 350 349 349 350 351 349 349 349 350 349 348 347 347 347 343 343 342 340 341 338 336 336 335 334 334 331 330 333 331 333 334 332 333 335 335 335 333 333 333 335
358 359 359 361 350 349 349 347 347 347 349 349 348 351 349 349 349 349 348 348 349 351 344 342 342 343 341 341 341 338 335 335 332 331 331 331 333 333 334 333 331 333 335 336 333 336 331 334 338
360 356 360 345 348 349 347 348 345 347 349 349 349 351 352 350 348 349 349 350 350 350 343 343 341 339 340 339 338 336 333 331 331 331 331 333 334 334 333 332 333 333 338 335 335 335 330 332 338
357 354 357 341 340 346 345 348 346 347 348 350 349 350 350 350 352 351 350 351 350 351 348 345 344 342 340 341 335 332 332 331 331 332 334 334 334 333 332 336 337 338 338 337 338 339 338 334 335
352 353 348 338 339 342 342 342 346 344 347 348 350 351 349 350 351 350 350 351 351 351 349 346 344 343 339 333 332 331 331 331 332 333 333 334 334 333 335 339 339 340 340 341 338 339 340 337 339
349 350 349 342 339 338 340 343 341 341 347 346 349 349 350 351 352 350 351 352 351 352 349 350 345 343 337 332 331 331 331 331 330 331 332 335 336 340 349 349 344 341 342 341 339 339 339 341 341
347 349 349 343 340 339 340 340 343 344 344 347 348 348 349 347 348 351 352 350 349 351 351 352 349 347 345 333 333 333 332 331 331 332 335 337 334 348 353 350 344 341 340 342 342 340 347 347 345
345 347 345 343 342 339 341 340 341 341 342 344 348 348 348 347 348 348 352 352 351 350 350 351 350 350 349 350 333 333 332 332 333 339 346 343 351 350 349 345 349 350 348 347 348 346 347 348 349
343 346 344 345 341 340 339 340 339 342 343 343 348 349 348 347 347 346 351 350 350 352 351 352 350 349 347 349 345 341 344 346 348 345 348 351 351 350 351 351 348 349 350 349 350 343 339 349 350
345 343 342 342 340 342 340 339 339 342 341 343 348 349 349 347 346 345 349 348 352 349 351 352 351 349 350 350 346 347 350 347 350 350 347 345 346 346 346 350 348 350 350 350 350 350 349 349 348
339 344 342 339 339 340 341 341 338 340 342 343 346 348 348 348 346 345 346 348 351 347 351 352 353 349 350 352 348 349 349 348 348 348 349 346 349 350 348 343 346 349 347 348 350 348 347 346 345
336 338 339 337 337 338 342 342 339 338 341 343 345 346 347 347 346 346 346 347 350 349 349 349 350 350 344 351 351 348 349 350 346 348 349 348 347 348 348 349 347 347 349 350 347 347 345 343 343
335 337 337 337 337 339 341 343 341 339 340 343 344 345 345 346 346 346 346 347 349 348 349 349 352 351 346 346 350 349 350 348 349 347 349 351 350 345 347 348 347 347 349 349 348 346 345 344 349
334 336 338 338 338 339 339 346 341 341 340 342 345 345 345 345 345 346 347 348 349 350 350 350 351 354 353 349 352 347 346 349 348 350 348 349 351 349 347 346 349 350 349 348 347 345 345 345 340
334 336 338 339 338 340 339 346 344 343 341 342 343 344 344 345 345 346 346 347 349 349 350 350 351 351 353 350 349 352 353 352 347 350 351 348 349 348 348 347 350 349 351 347 344 347 345 342 339
334 336 337 340 340 340 341 346 342 342 341 342 343 344 344 345 345 346 347 347 348 349 349 351 351 351 352 352 349 351 350 353 350 353 349 349 351 348 352 347 349 348 345 346 348 346 344 333 336
334 337 338 340 342 341 345 348 345 344 343 340 343 342 343 344 345 346 347 347 348 349 350 350 351 351 354 353 354 350 352 350 345 352 352 353 350 349 348 347 348 347 342 348 345 343 334 337 339
333 336 339 340 343 345 342 350 347 348 346 342 341 342 342 343 344 346 347 348 348 349 350 351 351 352 351 353 353 351 348 352 351 351 347 348 347 349 349 346 350 346 347 348 344 333 333 337 337
333 335 339 341 341 341 341 342 343 346 346 345 344 342 341 341 342 346 347 348 349 349 350 351 352 352 353 351 352 350 354 352 353 352 352 348 347 347 349 349 348 351 347 339 339 340 335 338 338
333 335 336 338 342 344 343 345 348 346 349 346 344 344 343 342 342 343 347 349 349 349 350 353 353 352 352 350 357 349 352 352 346 346 347 349 351 349 350 345 349 348 337 338 337 338 337 331 339
333 335 335 336 339 345 347 345 347 347 349 349 346 344 344 344 343 343 345 347 349 350 352 354 354 354 351 351 355 356 352 349 349 348 347 347 348 346 350 348 346 343 331 338 337 340 326 341 334
332 333 335 336 338 344 345 345 348 349 346 346 346 345 346 345 345 343 343 345 348 350 352 353 355 355 354 354 350 354 357 350 349 349 348 347 346 346 347 346 348 330 336 342 336 331 326 334 336
329 331 336 338 342 341 343 349 349 347 346 345 344 343 346 346 345 345 344 345 349 350 351 354 356 356 356 354 355 349 355 355 349 350 350 349 344 348 342 348 346 324 326 340 337 330 339 331 329
328 330 336 340 341 340 340 342 348 346 344 342 341 342 344 346 347 346 346 345 348 349 350 353 357 356 355 354 354 351 347 354 348 352 354 350 347 347 347 345 337 328 327 328 326 320 322 334 334
328 329 331 333 337 340 340 340 341 345 343 345 343 342 342 346 347 347 347 347 347 349 349 351 354 356 355 354 351 351 347 344 347 348 353 351 345 346 346 345 343 332 326 327 322 323 328 333 337
328 330 330 331 338 343 341 343 345 348 345 345 344 342 340 344 346 348 346 347 348 349 350 350 351 353 355 354 351 347 343 338 341 347 348 349 351 344 345 343 341 331 325 324 326 327 331 326 323
328 328 329 330 334 339 342 343 343 346 348 346 344 341 340 338 344 347 347 345 346 347 350 350 352 352 355 355 352 345 343 339 340 345 348 348 347 347 344 343 341 337 325 324 324 329 338 329 324
329 329 329 331 338 336 339 342 339 341 344 346 343 340 339 338 338 342 347 346 346 345 348 350 353 354 354 354 353 345 343 339 339 340 344 343 342 345 344 341 339 339 329 323 323 322 333 324 321

GFSSGP_850_thetae_027.txt.gz
Theta_e
347 352 353 343 356 354 357 356 350 349 350 349 346 350 350 350 349 349 347 345 345 344 344 343 343 340 338 337 331 333 334 334 334 332 333 333 331 334 335 334 334 335 335 335 334 339 335 338 339
347 354 344 341 356 358 358 351 354 351 351 348 350 349 348 349 348 348 346 345 344 344 343 342 340 337 333 332 331 332 334 334 333 332 332 333 330 332 334 332 333 334 334 334 333 333 333 333 338
348 352 344 347 354 358 357 351 351 352 351 350 350 349 349 349 348 349 347 346 345 343 341 340 339 336 333 332 331 332 334 334 333 331 330 333 331 333 332 331 333 334 336 335 335 332 334 337 335
353 355 353 360 355 351 351 348 349 351 351 351 349 349 349 350 348 348 347 349 345 342 341 340 340 339 337 335 334 333 334 334 333 331 330 332 332 334 332 331 332 335 337 335 337 331 333 337 335
356 354 357 361 351 348 345 346 349 350 351 350 350 351 349 348 347 347 347 347 347 345 343 342 341 341 340 337 335 335 334 332 331 331 332 333 333 333 332 335 335 338 336 337 338 337 332 335 338
358 358 358 358 348 348 345 346 348 350 351 352 351 349 350 347 348 348 347 349 345 342 341 341 341 339 338 338 336 334 332 331 331 331 333 334 333 332 337 337 338 339 340 339 340 339 335 338 337
359 352 356 352 348 342 346 345 350 350 350 350 350 349 349 349 349 347 348 348 348 343 343 339 337 337 336 334 332 331 331 331 332 333 333 334 333 341 343 344 342 341 341 339 339 339 338 339 341
344 348 352 347 341 339 344 344 349 350 350 349 350 353 351 350 349 349 351 351 350 346 344 342 339 336 336 333 332 331 330 331 332 332 334 334 346 346 348 345 341 340 340 340 337 339 345 345 346
342 348 351 347 339 338 341 344 347 350 349 349 349 350 348 350 349 351 351 352 351 350 343 342 341 336 332 330 330 330 330 331 331 332 335 343 341 347 345 347 348 348 345 345 340 345 345 346 346
347 348 345 343 341 337 341 345 345 348 348 348 348 349 350 350 351 351 351 350 351 351 346 344 342 337 332 331 331 331 331 331 331 334 342 347 348 346 344 348 348 345 346 348 349 341 342 345 345
345 347 342 342 342 342 338 339 341 341 348 348 349 349 351 351 351 350 351 350 351 350 349 347 342 342 339 333 333 332 335 336 341 341 343 346 350 348 349 349 349 346 346 349 346 347 346 344 347
343 342 341 341 342 340 338 339 341 341 343 348 348 346 347 352 352 350 351 349 350 347 346 349 348 344 346 343 345 340 346 344 348 349 349 341 345 345 347 347 347 346 346 347 347 346 346 343 346
343 342 340 340 341 341 339 338 341 342 347 348 348 346 347 348 351 352 351 349 350 348 350 351 349 345 348 349 345 348 350 348 349 349 347 347 343 347 349 347 347 346 347 346 347 346 344 344 343
342 343 341 338 340 342 340 338 342 343 349 349 349 347 347 346 346 351 349 347 351 349 350 352 350 348 347 350 352 352 351 350 349 350 350 349 348 344 347 346 345 346 347 347 347 346 343 342 344
333 335 342 340 336 340 341 339 341 342 347 349 349 348 348 347 345 346 349 348 350 348 350 352 352 349 344 349 352 348 349 350 348 347 348 350 351 349 344 345 345 346 346 346 346 347 343 342 342
330 329 330 333 334 337 340 342 338 342 345 347 348 348 348 347 346 345 348 347 349 346 350 351 351 350 348 345 349 348 348 349 347 348 347 349 349 350 346 345 345 347 349 347 346 346 344 344 341
325 328 329 332 335 337 338 341 340 340 344 344 346 346 346 347 346 346 346 347 349 348 349 350 349 350 350 345 345 347 345 345 346 348 349 350 348 350 346 344 345 349 348 349 346 345 345 343 340
325 328 329 332 337 337 339 341 340 339 341 344 345 345 345 345 346 346 346 348 348 348 349 349 350 350 352 351 349 344 346 351 350 347 347 348 347 349 347 347 344 348 348 346 346 346 342 334 337
327 329 330 332 338 339 342 341 340 340 340 341 344 344 345 345 345 345 346 347 348 348 349 350 350 351 352 352 351 345 348 346 348 349 349 348 348 349 349 346 347 346 344 345 343 344 337 337 337
327 328 330 332 338 340 345 344 341 338 337 340 342 344 344 345 345 345 346 347 348 348 348 349 349 349 351 354 352 351 346 347 346 345 350 353 348 347 345 345 344 345 345 344 345 336 328 338 337
327 327 330 333 340 341 345 349 341 339 341 342 342 343 344 344 345 345 346 347 347 347 348 348 349 350 350 354 353 353 347 347 353 348 349 350 348 348 348 346 346 346 349 344 339 333 334 339 337
326 329 331 332 339 341 344 350 346 342 343 343 341 342 342 344 344 344 347 346 347 347 348 349 349 350 350 351 352 351 345 353 354 349 350 350 349 349 342 348 346 348 349 342 333 327 327 336 338
326 329 331 331 332 341 342 342 343 345 346 345 341 341 341 342 344 345 345 347 347 348 348 348 349 350 350 350 351 348 349 351 352 346 345 345 352 348 345 348 346 346 345 333 334 330 321 336 336
326 327 329 330 331 337 341 341 342 341 346 344 343 343 341 341 342 343 345 346 347 348 348 348 348 349 351 352 349 349 349 349 348 346 348 346 349 347 345 346 346 340 337 330 333 327 319 323 335
324 323 328 330 332 332 340 342 342 341 342 345 345 344 343 342 342 342 346 347 348 348 349 349 349 350 351 352 350 348 353 350 350 350 350 348 347 347 344 341 340 340 322 325 329 323 318 320 327
323 323 326 329 332 332 331 342 343 342 342 345 343 343 344 344 342 342 342 345 348 348 348 350 351 350 351 352 353 346 349 354 348 351 351 349 348 344 339 335 331 338 323 319 324 322 320 321 318
324 323 323 323 327 331 333 333 335 341 342 341 341 342 342 342 345 343 343 343 346 348 348 349 352 351 351 353 353 349 346 350 347 348 350 351 350 347 346 346 346 339 326 321 322 321 320 325 329
325 325 323 323 324 329 330 333 337 340 343 341 341 340 342 342 342 345 344 343 344 345 346 349 350 351 352 352 353 353 343 346 344 347 348 353 353 347 348 348 346 345 342 328 322 322 323 326 329
323 324 322 322 324 327 329 331 334 342 343 341 341 341 342 342 344 345 346 344 344 346 347 348 350 352 353 353 352 353 350 341 344 342 343 347 353 348 345 345 346 344 342 339 322 322 322 329 332
327 324 321 324 325 326 325 329 332 333 342 341 341 341 340 341 342 344 347 346 346 346 349 348 349 351 352 352 352 351 351 346 341 340 336 337 346 351 349 344 344 344 343 340 326 321 322 328 333

GFSSGP_850_thetae_030.txt.gz
Theta_e
349 352 351 343 355 353 357 355 345 349 350 347 348 350 348 348 346 348 345 345 344 343 343 344 343 339 335 332 332 332 333 333 331 332 331 332 334 334 332 333 334 334 334 332 334 333 338 340 341
351 347 343 343 356 358 356 351 350 350 349 349 348 349 349 348 347 346 345 344 343 343 343 343 343 339 332 331 332 332 332 333 331 332 331 331 333 332 332 333 334 334 334 333 333 333 333 337 342
352 344 345 348 353 357 356 352 352 350 349 349 349 348 348 348 346 345 344 344 344 343 343 341 338 339 333 331 333 333 333 332 330 331 331 331 333 331 331 333 334 337 334 336 331 335 337 335 340
350 341 342 355 358 352 351 353 351 350 350 349 347 349 349 349 347 344 344 343 343 342 341 338 333 333 332 330 332 333 333 332 329 330 331 332 333 331 332 333 336 336 336 342 331 334 338 337 340
351 349 356 357 354 349 349 351 351 350 349 349 348 349 348 347 344 345 344 342 341 340 339 338 334 332 331 331 332 333 333 332 330 331 332 333 332 334 336 337 338 338 338 339 338 335 336 338 339
353 351 355 352 353 348 348 351 349 349 350 349 348 348 348 345 348 348 344 343 341 340 340 339 338 336 334 333 333 333 333 330 330 332 333 332 333 338 340 341 342 341 340 339 339 338 338 338 343
345 351 353 350 352 352 351 350 350 351 350 349 347 348 348 348 347 348 346 346 343 342 341 340 340 340 337 335 334 333 330 330 331 333 333 333 344 345 342 339 339 340 340 339 339 341 340 341 342
345 349 350 348 347 347 349 350 351 351 351 348 346 348 347 347 346 346 347 345 342 340 341 340 339 337 337 335 333 330 330 331 332 333 334 343 345 345 343 341 343 342 342 338 339 345 345 344 345
342 348 347 347 344 345 349 349 350 349 349 347 350 346 345 345 347 349 350 349 344 343 339 337 336 334 333 331 330 330 330 332 331 333 335 339 346 345 345 346 347 346 345 342 344 346 347 345 345
343 346 346 342 340 341 346 349 349 349 350 349 348 348 348 346 348 350 350 350 346 344 343 339 335 334 332 331 330 330 330 330 331 334 340 343 346 345 346 346 346 347 348 348 346 341 342 343 345
345 346 342 342 341 342 347 349 348 349 350 348 349 349 349 349 349 350 351 347 347 346 342 341 336 332 330 329 329 330 330 331 332 335 339 343 347 348 345 345 346 345 345 344 346 345 343 343 343
343 341 341 340 341 339 347 348 349 348 348 346 346 348 348 349 350 351 351 348 349 345 339 339 338 333 331 331 335 332 337 339 344 348 344 339 346 346 347 347 346 346 344 344 346 345 344 343 345
341 340 342 341 340 340 339 341 348 346 347 348 348 350 349 350 351 350 348 346 347 346 342 339 340 336 333 341 341 338 344 345 346 347 347 344 343 347 347 346 345 346 345 344 345 345 343 341 340
341 341 341 341 338 340 336 339 341 347 347 348 350 350 350 351 351 350 350 349 348 345 341 345 343 340 342 346 344 348 348 349 348 347 348 346 346 345 344 346 348 345 344 347 346 345 342 343 344
332 338 342 342 340 338 338 342 348 348 348 347 346 350 351 351 350 349 349 349 347 347 343 349 347 342 345 348 347 349 348 349 347 348 349 350 348 347 347 344 345 344 344 345 345 345 343 341 341
325 326 327 330 339 339 337 343 348 348 347 346 345 346 348 352 351 350 349 350 345 348 347 349 350 346 345 349 348 351 351 349 348 347 347 348 349 348 348 347 344 344 345 345 348 345 344 344 340
321 324 325 326 330 339 338 339 346 348 348 347 346 346 347 345 347 351 350 349 348 346 347 350 351 350 348 346 346 348 348 350 348 346 346 347 348 347 348 343 344 344 349 347 346 342 344 342 341
322 324 324 326 330 340 338 336 342 348 348 348 348 347 347 346 345 346 348 348 349 347 348 347 351 351 350 348 345 347 347 346 346 346 348 348 347 348 348 346 346 344 347 346 344 345 344 336 334
322 324 324 326 330 339 338 338 338 345 346 347 347 347 347 346 346 345 345 346 349 347 346 346 349 349 350 350 348 343 343 345 344 345 347 347 347 347 349 346 345 346 345 342 345 342 340 335 334
322 323 324 325 328 337 339 340 337 341 343 345 345 346 346 346 346 346 346 346 348 348 348 348 348 349 350 349 350 350 348 341 342 347 349 348 349 349 347 346 344 344 345 343 344 343 325 333 337
323 323 323 325 328 340 341 343 342 338 341 343 344 344 345 345 345 346 346 346 347 347 348 348 348 349 350 350 351 351 350 344 345 348 348 345 350 350 347 346 344 343 344 344 342 338 324 335 336
321 324 325 326 328 337 339 343 344 340 336 336 342 343 344 344 344 344 346 346 346 346 347 347 348 348 349 349 350 352 351 347 346 346 346 346 349 350 348 347 345 344 344 346 344 335 327 337 335
323 324 325 326 327 333 340 340 338 340 341 337 338 342 343 344 344 344 344 345 345 346 346 347 347 348 348 348 349 351 351 349 344 351 349 348 348 350 349 342 346 343 344 347 339 328 321 335 336
324 322 322 325 324 333 331 341 337 341 342 341 340 340 342 343 344 344 344 344 345 346 346 346 347 348 348 349 349 348 348 348 343 350 347 347 345 350 350 346 341 342 343 340 329 328 327 329 336
322 319 320 323 324 327 329 337 338 337 341 342 341 341 341 342 343 343 344 345 345 346 346 346 347 348 348 349 349 349 348 346 344 350 348 345 345 348 349 346 343 340 335 328 323 328 324 320 328
318 320 320 322 324 325 325 336 337 336 339 342 342 343 341 340 342 343 343 344 344 345 346 346 347 348 348 349 349 350 348 343 345 347 348 346 348 347 346 346 343 333 328 322 320 324 322 318 321
321 319 319 319 323 325 326 330 331 336 337 342 343 343 341 340 340 342 342 343 344 345 346 346 347 348 348 348 348 350 350 342 347 346 350 348 349 348 347 342 335 328 330 324 319 321 319 318 319
323 318 320 315 320 322 324 328 331 332 338 338 343 343 343 341 340 340 341 343 343 344 344 346 347 347 347 347 348 349 350 346 342 347 350 351 350 350 349 346 344 345 337 335 327 320 319 321 323
323 320 318 318 318 322 321 324 324 327 331 336 341 342 342 341 341 340 341 341 341 342 345 345 346 348 348 348 349 349 351 349 343 343 347 349 349 350 349 349 345 346 346 345 342 332 320 322 326
325 323 318 322 319 319 322 324 328 325 330 336 339 341 341 342 342 343 343 341 342 345 346 345 346 347 348 348 349 349 350 351 347 343 342 345 348 348 349 350 347 346 346 346 344 341 327 320 326

GFSSGP_850_thetae_033.txt.gz
Theta_e
348 349 350 341 354 353 355 354 345 349 350 348 348 347 348 347 346 348 344 343 343 343 343 343 343 336 335 334 334 335 335 332 331 331 332 333 332 332 334 334 333 334 333 332 332 338 340 340 338
351 348 344 343 352 354 354 351 349 350 348 348 349 348 347 349 345 345 345 343 343 344 344 343 338 334 334 337 336 334 332 331 332 331 333 333 331 332 333 333 335 334 334 332 334 333 339 342 340
351 345 343 348 351 354 354 351 351 349 349 349 347 347 347 346 345 345 345 343 343 343 344 341 338 334 332 333 333 333 331 332 331 330 332 332 330 331 332 335 336 336 332 331 336 334 335 341 341
352 342 345 355 356 353 351 352 350 349 349 348 348 349 348 347 345 344 344 343 343 342 342 340 338 332 332 332 333 332 331 330 331 330 332 332 331 333 334 337 335 337 334 331 335 337 337 339 342
351 348 355 354 350 351 349 350 349 349 348 348 348 348 348 346 344 343 343 343 343 342 340 340 337 331 331 332 333 332 331 329 330 331 333 331 336 337 338 339 340 338 338 335 335 337 339 340 343
345 347 355 354 352 349 350 351 350 348 348 347 347 347 348 345 343 343 343 342 342 340 337 333 335 333 330 331 332 332 332 330 331 332 332 333 338 342 340 341 340 339 339 337 338 336 339 341 343
344 348 352 350 351 352 350 351 349 349 348 347 346 347 348 344 342 342 342 341 340 339 337 333 332 331 330 331 332 332 332 329 332 333 332 343 341 342 339 339 340 339 338 338 339 340 340 343 345
344 348 350 350 352 353 350 349 349 348 349 346 344 347 347 346 342 342 341 340 340 339 339 337 335 333 332 332 332 333 330 330 332 333 334 345 343 340 341 343 343 340 338 339 343 343 344 344 344
347 345 346 346 350 349 350 350 350 349 348 346 347 344 344 346 346 345 346 346 342 341 340 339 339 337 334 334 333 331 330 331 332 333 342 344 344 345 345 346 344 344 342 344 345 345 345 343 343
341 342 343 341 341 348 350 350 349 349 347 348 347 344 344 347 347 346 348 345 342 341 341 339 338 337 336 334 331 330 330 331 331 334 339 345 345 345 346 345 345 346 347 344 342 344 343 344 342
344 347 342 341 340 348 349 349 349 348 347 348 346 345 346 347 347 347 348 345 341 340 338 338 336 333 332 330 330 330 331 330 331 335 341 347 345 346 344 346 344 344 344 344 345 344 342 345 343
345 343 343 340 342 346 348 348 348 347 346 345 341 343 345 347 348 348 348 347 343 342 341 336 334 333 331 330 329 329 330 331 332 338 342 344 347 347 346 347 345 345 344 343 345 343 344 344 345
342 340 339 340 342 346 348 348 348 348 348 345 344 345 346 347 347 348 346 346 342 343 342 340 336 332 330 328 329 330 332 335 343 346 343 341 344 344 345 346 344 345 345 343 345 345 342 340 340
336 337 336 337 339 346 348 348 348 348 348 348 346 347 347 347 348 348 348 348 347 346 340 339 337 333 330 330 339 333 341 343 346 346 347 343 343 346 344 344 346 345 343 344 345 343 341 342 343
329 333 335 339 340 340 343 343 348 347 347 349 349 348 348 348 348 349 347 346 345 344 339 337 336 334 332 336 340 341 347 346 346 346 347 347 346 346 347 345 347 345 344 344 345 343 343 342 341
324 325 325 327 334 339 338 340 343 346 347 349 349 349 349 348 349 348 347 345 345 346 344 342 341 337 334 342 344 347 347 346 347 347 348 348 347 347 348 347 345 344 343 343 343 346 344 343 340
319 324 324 324 330 335 336 338 346 347 347 349 349 349 349 349 350 350 349 346 346 347 344 345 345 339 341 347 346 345 349 348 348 347 347 346 348 350 347 348 343 343 345 345 345 344 343 344 341
322 322 323 324 328 334 336 338 347 347 347 347 349 350 349 350 349 350 350 348 348 348 346 344 347 348 346 345 347 347 350 350 349 348 346 347 347 348 348 347 346 344 344 345 344 343 343 340 331
322 322 323 324 331 337 336 337 348 347 346 345 345 346 348 350 349 350 350 349 348 349 346 347 347 349 350 347 348 349 351 350 348 348 346 347 347 347 346 349 347 345 345 342 341 342 340 334 336
320 322 322 322 325 329 332 338 347 346 346 346 345 345 345 346 347 350 350 349 349 349 347 347 347 348 349 350 348 347 345 347 348 347 345 345 346 347 347 348 347 343 346 343 342 343 341 327 334
320 320 322 322 325 331 336 339 344 347 347 347 346 346 345 345 345 345 346 347 348 349 347 347 347 346 347 348 349 348 347 345 343 343 345 348 348 347 348 347 346 344 343 343 341 342 335 329 335
321 321 323 323 324 325 336 342 338 344 347 345 346 346 346 345 345 344 344 344 345 346 347 347 346 346 347 348 349 349 349 350 346 341 343 345 344 345 350 348 346 345 343 343 344 342 335 332 335
323 323 323 324 323 324 329 337 336 338 343 342 342 344 345 346 345 344 344 344 344 345 345 346 347 347 347 348 348 349 348 349 348 343 345 345 346 346 349 349 347 344 344 342 345 342 328 333 336
323 324 320 322 319 323 324 331 332 340 339 338 337 342 343 344 344 344 344 345 345 345 345 346 347 347 347 347 347 348 348 347 349 345 345 348 349 347 348 349 348 338 341 340 343 333 328 322 333
321 318 320 319 320 323 321 327 328 331 338 338 337 337 342 343 343 344 343 344 345 346 346 345 346 347 347 347 347 348 348 347 346 347 343 349 348 348 346 348 348 340 337 340 338 329 326 325 326
319 320 317 320 320 321 322 326 327 331 334 338 339 339 338 341 342 343 343 343 344 345 345 345 345 346 347 347 347 347 347 348 348 346 343 347 345 345 343 346 347 344 340 336 328 323 326 325 321
319 320 319 316 320 319 322 324 328 330 331 333 337 339 339 339 342 342 343 343 343 344 344 344 345 345 346 346 347 347 347 348 349 346 344 346 344 344 346 346 346 345 340 335 327 319 323 321 319
321 316 319 310 320 320 319 324 327 330 331 332 336 339 340 339 340 341 342 343 343 343 344 344 344 344 345 346 346 347 347 347 349 348 341 343 345 346 348 348 346 343 337 332 329 322 319 320 320
319 319 316 316 314 319 318 321 322 327 330 332 335 339 340 340 340 340 341 342 342 342 343 344 344 344 345 345 346 347 347 347 348 350 339 341 342 346 348 348 347 343 342 337 331 334 324 320 320
322 320 315 317 317 315 320 320 323 325 324 327 333 339 341 342 341 339 341 341 342 342 343 343 344 344 344 345 345 346 347 347 348 349 344 339 342 346 349 349 349 347 346 345 345 344 342 336 321